CES5198 ZYJD-ZYHB

Flight info

Callsign CES5198
Flight time 0h 57m
Altitude 29100
Route JGD J106 P46 A588 BUBDI
Aircraft A320/M-SDE3FGHIRWY/LB1

Departure

Time 2026-04-22 10:40
Airport Daxing'anling Elunchun Airport (ZYJD)

Arrival

Time 2026-04-22 11:37
Airport Harbin Taiping International Airport (ZYHB)
Time Latitude Longitude Altitude Speed Heading
2026-04-22 10:23 50.37320 124.11251 1243 ft 0 kts 69°
2026-04-22 10:34 50.37321 124.11254 1246 ft 2 kts 70°
2026-04-22 10:34 50.37327 124.11308 1248 ft 6 kts 79°
2026-04-22 10:34 50.37318 124.11364 1247 ft 5 kts 142°
2026-04-22 10:35 50.37289 124.11388 1247 ft 4 kts 134°
2026-04-22 10:35 50.37286 124.11437 1247 ft 7 kts 81°
2026-04-22 10:35 50.37295 124.11504 1247 ft 5 kts 79°
2026-04-22 10:35 50.37302 124.11578 1247 ft 10 kts 81°
2026-04-22 10:36 50.37311 124.11683 1249 ft 7 kts 101°
2026-04-22 10:36 50.37273 124.11718 1250 ft 8 kts 169°
2026-04-22 10:36 50.37213 124.11735 1249 ft 12 kts 170°
2026-04-22 10:36 50.37092 124.11768 1248 ft 23 kts 170°
2026-04-22 10:37 50.36903 124.11819 1247 ft 33 kts 170°
2026-04-22 10:37 50.36443 124.11942 1243 ft 28 kts 170°
2026-04-22 10:37 50.36273 124.11988 1243 ft 18 kts 170°
2026-04-22 10:38 50.36196 124.12021 1242 ft 9 kts 142°
2026-04-22 10:38 50.36143 124.12083 1241 ft 10 kts 163°
2026-04-22 10:38 50.36141 124.12025 1241 ft 8 kts 339°
2026-04-22 10:38 50.36154 124.12021 1242 ft 0 kts 349°
2026-04-22 10:39 50.36157 124.12020 1241 ft 3 kts 349°
2026-04-22 10:39 50.36377 124.11961 1242 ft 70 kts 350°
2026-04-22 10:39 50.37082 124.11771 1248 ft 132 kts 350°
2026-04-22 10:39 50.38109 124.11495 1559 ft 153 kts 352°
2026-04-22 10:40 50.39147 124.11215 2433 ft 150 kts 352°
2026-04-22 10:40 50.40170 124.10936 3238 ft 152 kts 353°
2026-04-22 10:40 50.41279 124.10641 3602 ft 172 kts 352°
2026-04-22 10:40 50.42538 124.10305 3897 ft 196 kts 352°
2026-04-22 10:41 50.43930 124.09926 4539 ft 206 kts 351°
2026-04-22 10:41 50.45342 124.09540 5448 ft 206 kts 350°
2026-04-22 10:41 50.46758 124.09154 6319 ft 207 kts 349°
2026-04-22 10:41 50.48172 124.08828 7121 ft 210 kts 357°
2026-04-22 10:42 50.49565 124.09585 7866 ft 224 kts 37°
2026-04-22 10:42 50.50420 124.11748 8654 ft 240 kts 68°
2026-04-22 10:42 50.50782 124.14345 9456 ft 247 kts 77°
2026-04-22 10:42 50.50983 124.17053 10203 ft 253 kts 79°
2026-04-22 10:43 50.51160 124.19821 10945 ft 256 kts 79°
2026-04-22 10:43 50.51247 124.22601 11684 ft 264 kts 94°
2026-04-22 10:43 50.50657 124.25375 12422 ft 274 kts 119°
2026-04-22 10:43 50.49351 124.27652 12866 ft 294 kts 147°
2026-04-22 10:44 50.47432 124.29042 13136 ft 315 kts 161°
2026-04-22 10:44 50.45294 124.30276 13385 ft 339 kts 162°
2026-04-22 10:44 50.42998 124.31575 13590 ft 362 kts 162°
2026-04-22 10:44 50.40565 124.32950 13881 ft 379 kts 161°
2026-04-22 10:45 50.38066 124.34375 14451 ft 386 kts 161°
2026-04-22 10:45 50.35533 124.35833 15103 ft 390 kts 161°
2026-04-22 10:45 50.32981 124.37315 15762 ft 394 kts 160°
2026-04-22 10:45 50.30400 124.38818 16413 ft 397 kts 160°
2026-04-22 10:46 50.27792 124.40331 17059 ft 401 kts 160°
2026-04-22 10:46 50.25163 124.41854 17706 ft 405 kts 160°
2026-04-22 10:46 50.22508 124.43390 18331 ft 408 kts 160°
2026-04-22 10:46 50.19831 124.44937 18841 ft 412 kts 161°
2026-04-22 10:47 50.17129 124.46496 19388 ft 415 kts 161°
2026-04-22 10:47 50.14408 124.48058 19959 ft 417 kts 161°
2026-04-22 10:47 50.11712 124.49600 20548 ft 419 kts 161°
2026-04-22 10:47 50.08976 124.51163 21173 ft 419 kts 161°
2026-04-22 10:48 50.06268 124.52855 21770 ft 420 kts 155°
2026-04-22 10:48 50.03737 124.55158 22336 ft 423 kts 145°
2026-04-22 10:48 50.01442 124.58026 22880 ft 424 kts 140°
2026-04-22 10:48 49.99184 124.61000 23428 ft 426 kts 140°
2026-04-22 10:49 49.96916 124.63971 23882 ft 428 kts 140°
2026-04-22 10:49 49.94626 124.66955 24278 ft 431 kts 140°
2026-04-22 10:49 49.92319 124.69953 24657 ft 434 kts 140°
2026-04-22 10:49 49.89994 124.72967 25023 ft 437 kts 140°
2026-04-22 10:50 49.87651 124.75999 25392 ft 440 kts 141°
2026-04-22 10:50 49.85289 124.79054 25751 ft 443 kts 141°
2026-04-22 10:50 49.82914 124.82124 26110 ft 447 kts 140°
2026-04-22 10:50 49.80521 124.85216 26445 ft 450 kts 140°
2026-04-22 10:51 49.78104 124.88338 26720 ft 455 kts 140°
2026-04-22 10:51 49.75667 124.91484 27023 ft 459 kts 140°
2026-04-22 10:51 49.73205 124.94659 27362 ft 462 kts 140°
2026-04-22 10:51 49.70726 124.97844 27708 ft 465 kts 140°
2026-04-22 10:52 49.68234 125.01041 28061 ft 468 kts 140°
2026-04-22 10:52 49.65719 125.04262 28395 ft 471 kts 140°
2026-04-22 10:52 49.63186 125.07504 28723 ft 473 kts 140°
2026-04-22 10:52 49.60647 125.10746 28998 ft 476 kts 140°
2026-04-22 10:53 49.58101 125.13998 29073 ft 471 kts 140°
2026-04-22 10:53 49.53090 125.20390 29069 ft 466 kts 140°
2026-04-22 10:54 49.48121 125.26708 29084 ft 465 kts 140°
2026-04-22 10:54 49.43115 125.33037 29068 ft 465 kts 141°
2026-04-22 10:55 49.38116 125.39344 29060 ft 465 kts 140°
2026-04-22 10:55 49.33118 125.45647 29059 ft 465 kts 140°
2026-04-22 10:56 49.28150 125.51889 29047 ft 465 kts 141°
2026-04-22 10:56 49.23131 125.58169 29039 ft 467 kts 141°
2026-04-22 10:57 49.18100 125.64453 29044 ft 467 kts 141°
2026-04-22 10:57 49.13058 125.70739 29045 ft 467 kts 141°
2026-04-22 10:58 49.08021 125.77004 29058 ft 467 kts 141°
2026-04-22 10:58 49.02969 125.83265 29052 ft 467 kts 141°
2026-04-22 10:59 48.97915 125.89499 29050 ft 467 kts 141°
2026-04-22 10:59 48.92890 125.95774 29047 ft 467 kts 140°
2026-04-22 11:00 48.87913 126.02134 29061 ft 467 kts 140°
2026-04-22 11:00 48.82961 126.08449 29031 ft 467 kts 140°
2026-04-22 11:01 48.77960 126.14761 29029 ft 468 kts 140°
2026-04-22 11:01 48.72933 126.21056 29030 ft 469 kts 141°
2026-04-22 11:02 48.67892 126.27365 29049 ft 470 kts 140°
2026-04-22 11:02 48.62858 126.33671 29047 ft 470 kts 140°
2026-04-22 11:03 48.57819 126.39958 29046 ft 470 kts 141°
2026-04-22 11:03 48.52769 126.46236 29044 ft 470 kts 141°
2026-04-22 11:04 48.47752 126.52459 29042 ft 470 kts 141°
2026-04-22 11:04 48.42696 126.58707 29040 ft 470 kts 141°
2026-04-22 11:05 48.37640 126.64940 29043 ft 470 kts 141°
2026-04-22 11:05 48.32576 126.71156 29015 ft 470 kts 141°
2026-04-22 11:06 48.28347 126.76298 29031 ft 471 kts 144°
2026-04-22 11:06 48.25578 126.78901 28877 ft 471 kts 154°
2026-04-22 11:06 48.22561 126.80782 28596 ft 468 kts 165°
2026-04-22 11:06 48.19401 126.81877 28316 ft 464 kts 175°
2026-04-22 11:07 48.16202 126.82188 28035 ft 458 kts 185°
2026-04-22 11:07 48.13058 126.81748 27758 ft 451 kts 193°
2026-04-22 11:07 48.09964 126.81017 27524 ft 449 kts 193°
2026-04-22 11:07 48.06880 126.80302 27558 ft 449 kts 193°
2026-04-22 11:08 48.03786 126.79596 27530 ft 449 kts 193°
2026-04-22 11:08 48.00694 126.78896 27551 ft 450 kts 193°
2026-04-22 11:08 47.97598 126.78192 27550 ft 450 kts 193°
2026-04-22 11:08 47.94500 126.77485 27560 ft 450 kts 193°
2026-04-22 11:09 47.91406 126.76774 27553 ft 450 kts 193°
2026-04-22 11:09 47.88311 126.76065 27553 ft 449 kts 193°
2026-04-22 11:09 47.85223 126.75363 27550 ft 450 kts 193°
2026-04-22 11:09 47.82165 126.74674 27550 ft 450 kts 193°
2026-04-22 11:10 47.79073 126.73976 27553 ft 450 kts 193°
2026-04-22 11:10 47.75982 126.73273 27553 ft 449 kts 193°
2026-04-22 11:10 47.72883 126.72568 27550 ft 449 kts 193°
2026-04-22 11:10 47.69793 126.71867 27549 ft 450 kts 193°
2026-04-22 11:11 47.66697 126.71166 27204 ft 448 kts 193°
2026-04-22 11:11 47.63623 126.70475 26834 ft 445 kts 193°
2026-04-22 11:11 47.60567 126.69785 26463 ft 442 kts 193°
2026-04-22 11:11 47.57529 126.69096 26094 ft 448 kts 193°
2026-04-22 11:12 47.54396 126.68382 25694 ft 460 kts 193°
2026-04-22 11:12 47.51223 126.67661 25349 ft 462 kts 193°
2026-04-22 11:12 47.48057 126.66943 24993 ft 460 kts 193°
2026-04-22 11:12 47.44903 126.66233 24656 ft 457 kts 193°
2026-04-22 11:13 47.41760 126.65536 24308 ft 455 kts 193°
2026-04-22 11:13 47.38643 126.64850 23900 ft 454 kts 192°
2026-04-22 11:13 47.35498 126.64152 23451 ft 458 kts 192°
2026-04-22 11:13 47.32345 126.63449 22944 ft 457 kts 192°
2026-04-22 11:14 47.29207 126.62745 22414 ft 455 kts 193°
2026-04-22 11:14 47.26082 126.62043 21916 ft 453 kts 193°
2026-04-22 11:14 47.22975 126.61348 21426 ft 450 kts 193°
2026-04-22 11:14 47.19882 126.60659 20946 ft 448 kts 193°
2026-04-22 11:15 47.16842 126.59989 20485 ft 445 kts 193°
2026-04-22 11:15 47.13787 126.59315 19995 ft 443 kts 193°
2026-04-22 11:15 47.10753 126.58647 19558 ft 439 kts 193°
2026-04-22 11:15 47.07744 126.57984 19079 ft 436 kts 193°
2026-04-22 11:16 47.04739 126.57320 18638 ft 436 kts 193°
2026-04-22 11:16 47.01748 126.56656 18178 ft 434 kts 193°
2026-04-22 11:16 46.98768 126.55994 17616 ft 431 kts 193°
2026-04-22 11:16 46.95813 126.55338 17064 ft 427 kts 193°
2026-04-22 11:17 46.92880 126.54693 16523 ft 424 kts 193°
2026-04-22 11:17 46.89980 126.54059 15990 ft 420 kts 193°
2026-04-22 11:17 46.87103 126.53434 15465 ft 416 kts 192°
2026-04-22 11:17 46.84249 126.52814 14939 ft 413 kts 193°
2026-04-22 11:18 46.81414 126.52194 14428 ft 411 kts 193°
2026-04-22 11:18 46.78597 126.51579 13934 ft 408 kts 193°
2026-04-22 11:18 46.75796 126.50964 13392 ft 404 kts 193°
2026-04-22 11:18 46.73038 126.50356 12950 ft 396 kts 193°
2026-04-22 11:19 46.70347 126.49764 12546 ft 387 kts 193°
2026-04-22 11:19 46.67751 126.49194 12145 ft 378 kts 193°
2026-04-22 11:19 46.65145 126.48624 11741 ft 370 kts 193°
2026-04-22 11:19 46.62654 126.48085 11351 ft 362 kts 193°
2026-04-22 11:20 46.60187 126.47554 10955 ft 355 kts 193°
2026-04-22 11:20 46.57787 126.47037 10743 ft 343 kts 193°
2026-04-22 11:20 46.55454 126.46532 10536 ft 332 kts 193°
2026-04-22 11:20 46.53180 126.46228 10333 ft 326 kts 185°
2026-04-22 11:21 46.50932 126.46404 10134 ft 321 kts 176°
2026-04-22 11:21 46.48771 126.47039 10002 ft 313 kts 168°
2026-04-22 11:21 46.46725 126.48086 9877 ft 311 kts 159°
2026-04-22 11:21 46.44797 126.49519 9652 ft 311 kts 152°
2026-04-22 11:22 46.42926 126.51073 9375 ft 309 kts 153°
2026-04-22 11:22 46.41066 126.52611 9097 ft 307 kts 153°
2026-04-22 11:22 46.39215 126.54138 8825 ft 306 kts 152°
2026-04-22 11:22 46.37367 126.55661 8565 ft 305 kts 153°
2026-04-22 11:23 46.35528 126.57176 8305 ft 303 kts 153°
2026-04-22 11:23 46.33676 126.58617 8030 ft 300 kts 158°
2026-04-22 11:23 46.31737 126.59670 7748 ft 296 kts 167°
2026-04-22 11:23 46.29744 126.60292 7487 ft 290 kts 176°
2026-04-22 11:24 46.27780 126.60494 7234 ft 284 kts 185°
2026-04-22 11:24 46.25801 126.60300 6973 ft 279 kts 193°
2026-04-22 11:24 46.23911 126.59880 6721 ft 278 kts 193°
2026-04-22 11:24 46.22007 126.59465 6475 ft 276 kts 193°
2026-04-22 11:25 46.20116 126.59059 6214 ft 274 kts 193°
2026-04-22 11:25 46.18229 126.58659 5940 ft 274 kts 193°
2026-04-22 11:25 46.16343 126.58260 5677 ft 273 kts 192°
2026-04-22 11:25 46.14465 126.57863 5414 ft 272 kts 192°
2026-04-22 11:26 46.12591 126.57467 5150 ft 272 kts 192°
2026-04-22 11:26 46.10722 126.57074 4890 ft 271 kts 192°
2026-04-22 11:26 46.08858 126.56678 4635 ft 271 kts 193°
2026-04-22 11:26 46.06994 126.56278 4355 ft 269 kts 192°
2026-04-22 11:27 46.05147 126.55883 4095 ft 268 kts 191°
2026-04-22 11:27 46.03308 126.55492 3833 ft 266 kts 191°
2026-04-22 11:27 46.01477 126.55106 3572 ft 266 kts 191°
2026-04-22 11:27 45.99653 126.54721 3316 ft 265 kts 191°
2026-04-22 11:28 45.97842 126.54339 3075 ft 259 kts 190°
2026-04-22 11:28 45.96107 126.53972 2986 ft 244 kts 191°
2026-04-22 11:28 45.94477 126.53628 2993 ft 233 kts 191°
2026-04-22 11:28 45.92892 126.53292 2994 ft 233 kts 191°
2026-04-22 11:29 45.91283 126.52950 2992 ft 233 kts 191°
2026-04-22 11:29 45.89725 126.52620 2997 ft 220 kts 191°
2026-04-22 11:29 45.88228 126.52304 2996 ft 216 kts 191°
2026-04-22 11:29 45.86749 126.51989 2997 ft 214 kts 191°
2026-04-22 11:30 45.85298 126.51553 2989 ft 212 kts 203°
2026-04-22 11:30 45.84018 126.50563 2996 ft 208 kts 221°
2026-04-22 11:30 45.82904 126.49240 2845 ft 208 kts 223°
2026-04-22 11:30 45.81789 126.47918 2630 ft 207 kts 223°
2026-04-22 11:31 45.80677 126.46604 2427 ft 207 kts 223°
2026-04-22 11:31 45.79568 126.45295 2218 ft 206 kts 223°
2026-04-22 11:31 45.78475 126.44005 2111 ft 200 kts 223°
2026-04-22 11:31 45.77428 126.42773 2093 ft 188 kts 222°
2026-04-22 11:32 45.76447 126.41619 2108 ft 179 kts 223°
2026-04-22 11:32 45.75494 126.40497 2097 ft 176 kts 223°
2026-04-22 11:32 45.74553 126.39388 2093 ft 175 kts 223°
2026-04-22 11:32 45.73614 126.38281 2092 ft 175 kts 223°
2026-04-22 11:33 45.72677 126.37176 2103 ft 173 kts 223°
2026-04-22 11:33 45.71801 126.36146 2097 ft 154 kts 223°
2026-04-22 11:33 45.71002 126.35206 2104 ft 145 kts 223°
2026-04-22 11:33 45.70232 126.34298 2099 ft 142 kts 223°
2026-04-22 11:34 45.69470 126.33400 1987 ft 142 kts 223°
2026-04-22 11:34 45.68712 126.32507 1830 ft 141 kts 223°
2026-04-22 11:34 45.67955 126.31617 1649 ft 140 kts 224°
2026-04-22 11:34 45.67202 126.30731 1453 ft 139 kts 223°
2026-04-22 11:35 45.66457 126.29856 1269 ft 138 kts 222°
2026-04-22 11:35 45.65720 126.28990 1066 ft 139 kts 222°
2026-04-22 11:35 45.64972 126.28109 887 ft 139 kts 221°
2026-04-22 11:35 45.64227 126.27231 687 ft 139 kts 220°
2026-04-22 11:36 45.63485 126.26357 490 ft 139 kts 219°
2026-04-22 11:36 45.62796 126.25550 454 ft 107 kts 219°
2026-04-22 11:36 45.62346 126.25022 453 ft 62 kts 219°
2026-04-22 11:36 45.62045 126.24671 459 ft 51 kts 219°
2026-04-22 11:37 45.61818 126.24404 458 ft 33 kts 219°
2026-04-22 11:37 45.61741 126.24183 461 ft 14 kts 264°
2026-04-22 11:37 45.61773 126.24071 462 ft 11 kts 293°
2026-04-22 11:37 45.61738 126.23999 462 ft 9 kts 213°
2026-04-22 11:38 45.61695 126.23948 461 ft 9 kts 220°
2026-04-22 11:38 45.61639 126.23883 463 ft 13 kts 219°
2026-04-22 11:38 45.61518 126.23720 464 ft 9 kts 266°
2026-04-22 11:39 45.61548 126.23650 462 ft 9 kts 309°
2026-04-22 11:39 45.61602 126.23575 464 ft 10 kts 332°
2026-04-22 11:39 45.61663 126.23535 464 ft 9 kts 335°
2026-04-22 11:39 45.61715 126.23498 464 ft 8 kts 322°
2026-04-22 11:40 45.61726 126.23435 465 ft 6 kts 276°
2026-04-22 11:40 45.61729 126.23395 465 ft 2 kts 276°
2026-04-22 11:40 45.61730 126.23387 465 ft 0 kts 276°
2026-04-22 11:40 45.61730 126.23383 465 ft 0 kts 276°